www.pogodaiklimat.ru

ПОГОДА в Юртах

  • Прогноз погоды в Юртах
  • Монитор погоды в Юртах
  • Климат города

АРХИВ ПОГОДЫ в Юртах

Время (UTC), дата Ветер
(напр.,м/с)
 
Видим.   Явления Облачность Т
(С)
Тd
(С)
f
(%)
Тe
(С)
Тes
(С)
Комфортность P
(гПа)
Po
(гПа)
Тmin
(С)
Tmax
(С)
R
(мм)
S
(см)
18 9.01 Ю 8-10
{13}
50 км позёмок {метель} 9/0
[Ac trans]
-38.3 -41.6 71 -56 -56 опасность
обморожения
1017.9 934.7
21 9.01 Ю 7-11
{13}
50 км позёмок {метель} 10/0
[Cs]
-38.8 -42.5 68 -56 -56 опасность
обморожения
1020.2 936.6 -39.2 17
00 10.01 Ю 5
{12}
50 км позёмок {метель} 4/0
[Ci fib]
-39.3 -42.9 68 -54 -54 опасность
обморожения
1022.8 938.9
03 10.01 Ю 5
{10}
50 км позёмок {метель} 3/0
[Ci fib]
-37.7 -41.2 70 -52 -52 опасность
обморожения
1023.9 940.5
06 10.01 Ю 5
{10}
50 км позёмок {метель} 3/0
[Ci fib]
-43.0 -45.6 75 -59 -59 опасность
обморожения
1028.8 943.2
09 10.01 Ю 5
{10}
50 км позёмок {метель} ясно -37.5 -40.5 73 -52 -52 опасность
обморожения
1030.1 946.6 -37.5
12 10.01 Ю 6
{10}
50 км позёмок {метель} ясно -40.1 -43.4 70 -56 -56 опасность
обморожения
1035.3 950.2
15 10.01 Ю 3 50 км {метель} ясно -43.0 -46.2 71 -55 -55 опасность
обморожения
1039.4 952.9
18 10.01 Ю 1 50 км {метель} ясно -45.8 -49.2 68 -52 -52 опасность
обморожения
1043.2 955.3
21 10.01 Ю 1 50 км ясно -46.0 -49.2 70 -52 -52 опасность
обморожения
1046.2 958.0 -46.0 18
00 11.01 ЮВ 1 50 км ясно -48.0 -50.6 74 -54 -54 опасность
обморожения
1049.8 960.5 -48.0
03 11.01 Ю 1 50 км 10/0
[Ci fib]
-47.5 -50.6 70 -54 -53 опасность
обморожения
1051.3 962.1
06 11.01 штиль 0 50 км 4/0
[Ci fib]
-47.5 -50.6 70 -48 -48 опасность
обморожения
1052.5 963.2
09 11.01 штиль 0 50 км ясно -49.0 -51.8 72 -49 -49 опасность
обморожения
1054.7 964.6 -47.5
12 11.01 штиль 0 50 км ясно -47.0 -49.6 74 -47 -47 опасность
обморожения
1054.5 965.3
15 11.01 штиль 0 50 км ясно -47.0 -49.6 74 -47 -47 опасность
обморожения
1056.2 965.5
18 11.01 штиль 0 50 км ясно -47.4 -49.6 78 -47 -47 опасность
обморожения
1057.3 967.6
21 11.01 штиль 0 50 км 10/0
[As op]
-44.0 -47.0 72 -44 -44 опасность
обморожения
1055.2 967.0 -47.4 18
00 12.01 штиль 0 50 км 10/0
[Cs]
-45.2 -47.8 75 -45 -45 опасность
обморожения
1056.2 967.5 -45.2
03 12.01 штиль 0 50 км 10/0
[Cs]
-41.0 -43.8 74 -41 -41 опасность
обморожения
1055.0 967.9
06 12.01 штиль 0 50 км 8/0
[Cs]
-40.0 -42.8 74 -40 -40 опасность
обморожения
1054.0 967.4
09 12.01 штиль 0 50 км 10/0
[Cs]
-42.6 -45.8 71 -43 -43 опасность
обморожения
1055.2 968.1 -40.0
12 12.01 штиль 0 50 км 10/0
[Cs]
-42.5 -45.0 76 -43 -43 опасность
обморожения
1056.4 968.6
15 12.01 штиль 0 50 км 10/0
[Cs]
-43.6 -46.3 74 -44 -44 опасность
обморожения
1056.7 968.5
18 12.01 штиль 0 50 км 10/0
[Cs]
-44.1 -47.0 73 -44 -44 опасность
обморожения
1056.7 968.4
21 12.01 штиль 0 50 км ясно -46.0 -48.6 75 -46 -46 опасность
обморожения
1057.2 968.1 -46.0 18
00 13.01 штиль 0 50 км 3/0
[Ci fib]
-46.0 -48.6 75 -46 -46 опасность
обморожения
1056.2 967.2
03 13.01 штиль 0 50 км 10/0
[Ac As]
-40.1 -42.8 75 -40 -40 опасность
обморожения
1053.7 967.1
06 13.01 штиль 0 50 км 10/0
[Ac trans Ci fib]
-38.5 -41.4 74 -39 -39 опасность
обморожения
1052.3 966.3
09 13.01 штиль 0 50 км 3/0
[Ci fib]
-40.0 -42.8 74 -40 -40 опасность
обморожения
1053.2 965.6 -38.5
12 13.01 З 1 50 км 3/0
[Ci fib]
-39.2 -41.8 76 -44 -44 опасность
обморожения
1053.0 966.7
15 13.01 штиль 0 50 км 3/0
[Ci fib]
-38.5 -41.4 74 -39 -39 опасность
обморожения
1052.5 965.6
18 13.01 штиль 0 50 км ясно -38.5 -41.4 74 -39 -39 опасность
обморожения
1053.1 967.0
21 13.01 штиль 0 50 км 10/0
[Cs]
-38.3 -40.9 76 -38 -38 опасность
обморожения
1053.0 966.9 -40.0 18
00 14.01 Ю 1 50 км 3/0
[Ci fib]
-39.0 -41.8 75 -44 -44 опасность
обморожения
1053.2 966.9
03 14.01 штиль 0 50 км 5/0
[Ci fib]
-39.1 -41.8 75 -39 -39 опасность
обморожения
1053.1 966.8
06 14.01 штиль 0 50 км 4/0
[Ci fib]
-38.1 -40.9 75 -38 -38 опасность
обморожения
1052.7 966.8
09 14.01 штиль 0 50 км ясно -42.2 -45.0 74 -42 -42 опасность
обморожения
1054.3 966.9 -38.2
12 14.01 штиль 0 50 км ясно -42.6 -45.6 72 -43 -43 опасность
обморожения
1055.0 967.4
15 14.01 штиль 0 50 км 3/0
[Ci fib]
-42.6 -45.6 72 -43 -43 опасность
обморожения
1054.9 967.3
18 14.01 штиль 0 50 км 4/0
[Ci fib]
-42.1 -45.0 73 -42 -42 опасность
обморожения
1054.5 967.1
21 14.01 штиль 0 50 км ясно -45.0 -47.8 73 -45 -45 опасность
обморожения
1056.3 967.6 -45.0 18
00 15.01 штиль 0 50 км ясно -45.3 -47.8 76 -45 -45 опасность
обморожения
1056.7 967.8 -45.3
03 15.01 штиль 0 50 км ясно -43.8 -46.3 76 -44 -44 опасность
обморожения
1057.7 967.1
06 15.01 штиль 0 50 км ясно -42.8 -45.6 74 -43 -43 опасность
обморожения
1054.8 967.0
09 15.01 штиль 0 20 км ясно -44.4 -47.0 75 -44 -44 опасность
обморожения
1055.4 967.2 -42.8
12 15.01 штиль 0 50 км ясно -45.0 -47.8 73 -45 -45 опасность
обморожения
1055.7 967.3
15 15.01 штиль 0 50 км ясно -47.2 -49.6 76 -47 -47 опасность
обморожения
1056.6 967.2
18 15.01 штиль 0 50 км ясно -47.8 -50.6 73 -48 -48 опасность
обморожения
1056.8 967.0
21 15.01 штиль 0 50 км ясно -48.4 -50.6 78 -48 -48 опасность
обморожения
1058.2 968.1 -48.4 18
00 16.01 штиль 0 50 км ясно -48.4 -50.6 78 -48 -48 опасность
обморожения
1058.2 968.1
03 16.01 штиль 0 50 км 3/0
[Ci fib]
-48.2 -50.6 76 -48 -48 опасность
обморожения
1057.6 967.7
06 16.01 штиль 0 50 км 3/0
[Ci fib]
-45.9 -48.6 74 -46 -46 опасность
обморожения
1056.0 967.0
09 16.01 штиль 0 50 км 3/0
[Ci fib]
-48.4 -50.6 78 -48 -48 опасность
обморожения
1056.9 966.9 -45.9
12 16.01 штиль 0 50 км ясно -49.4 -51.8 76 -49 -49 опасность
обморожения
1057.5 966.9
15 16.01 штиль 0 50 км 1/0
[Ci fib]
-48.9 -51.8 71 -49 -49 опасность
обморожения
1056.7 966.5

 

Местоположение метеостанции Юрты (Якутия, Россия): широта 64.05 долгота 141.80 высота над уровнем моря 590 м.

В архиве по умолчанию представлена погода в Юртах за последнюю неделю. Архивные данные за месяц целиком и за предыдущие месяцы, начиная с января 2011 года, Вы можете получить, выбрав интересующий диапазон дат из раскрывающегося списка и нажав кнопку "Ввод!".

Внимание! Время в таблицах - всемирное. Для получения местного времени необходимо прибавить поправку, которая в Юртах равна 10 ч.

Ветер - указаны скорость ветра в м/с - средняя за 10 мин, порывы в срок и между сроками (в фигурных скобках) и направление, откуда дует ветер: С - северный, СВ - северо-восточный, В - восточный, ЮВ - юго-восточный, Ю - южный, ЮЗ - юго-западный, З - западный, СЗ - северо-западный.
Видимость - горизонтальная дальность видимости в метрах или километрах. При видимости от 1 до 10 км при отсутствии осадков обычно наблюдается дымка, при ухудшении видимости до 1 км и менее - туман. В сухую погоду видимость может ухудшаться дымом, пылью или мглою.
Явления - указаны атмосферные явления, наблюдавшиеся в срок или в последний час перед сроком; фигурными скобками обозначены явления, наблюдавшиеся между сроками (за 1-3 часа до срока); квадратными скобками обозначены град или гололедные отложения с указанием их диаметра в мм.
Облачность - указаны через наклонную черту общая и нижняя облачность в баллах и высота нижней границы облаков в метрах; квадратными скобками обозначены формы облаков: Ci - перистые, Cs - перисто-слоистые, Cc - перисто-кучевые, Ac - высококучевые, As - высокослоистые, Sc - слоисто-кучевые, Ns - слоисто-дождевые, Cu - кучевые, Cb - кучево-дождевые. Подробнее классификацию облаков см. в Атласе облаков (PDF).
T - Температура воздуха - температура, измеренная на высоте 2 м над землей.
Td - Температура точки росы - температура, при понижении до которой содержащийся в воздухе водяной пар достигнет насыщения.
f - Относительная влажность воздуха - влажноcть воздуха, измеренная на высоте 2 м над землей.
Te - Эффективная температура - температура, которую ощущает одетый по сезону человек в тени. Характеристика душности погоды. При расчете учитывается влияние влажности воздуха и скорости ветра на теплоощущения человека.
Tes - Эффективная температура на солнце - температура, которую ощущает человек, с поправкой на солнечный нагрев. Характеристика знойности погоды. Зависит от высоты солнца над горизонтом, облачности и скорости ветра. Ночью, в пасмурную погоду, а также при ветре 12 м/с и более поправка равна нулю.
P - Атмосферное давление - приведенное к уровню моря атмосферное давление.
Po - Атмосферное давление - измеренное на уровне метеостанции атмосферное давление.
Tmin - Минимальная температура - минимум температуры воздуха на высоте 2 м над землей.
Tmax - Максимальная температура - максимум температуры воздуха на высоте 2 м над землей.
R - Количество осадков - Количество выпавших осадков, мм. При наведении курсора мыши на число - период времени, за который выпало указанное количество осадков.
S - Снежный покров - Высота снежного покрова, см. При наведении курсора мыши на число - состояние снежного покрова и степень покрытия местности в баллах.